Regional Weather Roundup
Issued by NWS

Home | Current Version | Previous Version | Graphics & Text | Print | Product List | Glossary On
Versions: 1 2 3 4 5 6 7 8 9 10 11 12 13 14 15 16 17 18 19 20 21 22 23 24 25 26 27 28
000
ASUS45 KBOU 220710
RWRCO

WEATHER ROUNDUP FOR COLORADO
NATIONAL WEATHER SERVICE DENVER/BOULDER CO
1200 AM MST MON JAN 22 2018

NOTE: "FAIR" INDICATES FEW OR NO CLOUDS BELOW 12000 FEET WITH NO
SIGNIFICANT WEATHER AND/OR OBSTRUCTIONS TO VISIBILITY.

COZ001>005-013-030-031-220800-
...NORTHWEST COLORADO...

CITY           SKY/WX    TMP DP  RH WIND       PRES   REMARKS
CRAIG          CLOUDY    10   6  84 CALM      30.17R
HAYDEN         FLURRIES N/A N/A N/A CALM      30.16R
MEEKER         FAIR      10   8  92 NE3       30.15S
RABBIT EARS PA LGT SNOW   3   1  92 W12G22    29.93S WCI -13
STEAMBOAT SPGS CLOUDY    12   9  89 CALM      30.12R
WALDEN         FAIR       5   1  85 SE5       30.02S WCI  -4
$$

COZ006>008-011-220800-
...WEST CENTRAL VALLEYS...

CITY           SKY/WX    TMP DP  RH WIND       PRES   REMARKS
GRAND JUNCTION FAIR      14   8  77 CALM      30.21S
MONTROSE       CLOUDY    19  13  77 SE5       30.22R WCI  12
EAGLE          CLOUDY    12   8  84 SE6       30.14R WCI   3
RIFLE          CLOUDY    23  18  81 W5        30.19R WCI  17
DELTA          FAIR      26  14  59 W10       30.20R WCI  17
NUCLA          MOCLDY    16   9  73 E12       30.24R WCI   3
$$

COZ017>023-064>068-220800-
...SOUTHWEST COLORADO...

CITY           SKY/WX    TMP DP  RH WIND       PRES   REMARKS
DURANGO        FAIR      21   7  54 VRB7      30.04R WCI  12
CORTEZ         FAIR       9   5  84 NE6       30.17R WCI  -1
PAGOSA SPRINGS MOCLDY    11   9  92 CALM      30.03R
TELLURIDE      FLURRIES  10   7  86 W12       30.09R WCI  -4
WOLF CREEK PAS FAIR       1  -6  71 NW13G21   29.93S WCI -16
$$

COZ009-010-012-014-032>034-037-058>063-220800-
...CENTRAL COLORADO...

CITY           SKY/WX    TMP DP  RH WIND       PRES   REMARKS
ASPEN          CLOUDY    15  10  80 N7        30.06R WCI   5
BUENA VISTA    FAIR      16   2  53 W22       29.93S WCI  -1
COPPER MTN     NOT AVBL
BERTHOUD PASS  HVY SNOW  -4 -15  59 N15G36    29.78R VSB 1/4 WCI -25
COTTONWOOD PAS   N/A     18   1  49 W29G37    29.86S WCI  -2
GUNNISON       FAIR      13   8  81 W9        30.05R WCI   1
KREMMLING      FAIR      10   5  79 CALM      30.07R
LEADVILLE      CLOUDY     5   0  79 N13G20    29.92R WCI -12
MONARCH PASS   CLOUDY     0  -6  78 W25       29.92S WCI -25
SALIDA         FAIR      18   6  60 W5        30.02S WCI  11
SUNLIGHT       CLOUDY   N/A N/A N/A MISG      30.03S
WILKERSON PASS   N/A      3  -2  78 N13G22    29.80S WCI -14
$$

COZ069>075-220800-
...SAN LUIS VALLEY/SANGRE DE CRISTO MOUNTAINS...

CITY           SKY/WX    TMP DP  RH WIND       PRES   REMARKS
ALAMOSA        FAIR       8  -1  66 N8        29.95R WCI  -4
DEL NORTE      FAIR      17   0  45 NW9G16    29.96R WCI   6
LA VETA PASS   FAIR       7   3  85 SW20        N/A  WCI -13
SAGUACHE       CLOUDY    18   5  57 N18G25    29.96S WCI   2
$$

COZ035-036-038>040-220800-
...NORTHERN COLORADO FRONT RANGE...

CITY           SKY/WX    TMP DP  RH WIND       PRES   REMARKS
DENVER INTL AP CLOUDY    26  13  57 N20       29.93F WCI  12
DMNS CITY PARK NOT AVBL
AURORA         MOCLDY    23  15  70 NW13      29.93F WCI  11
FRONT RANGE AP CLOUDY    27  18  67 N17       29.93F WCI  14
ERIE MUNI ARPT CLOUDY    24  17  77 SW3       30.01S
BOULDER MUN AP CLOUDY    25  21  86 CALM      29.94S
CENTENNIAL     CLOUDY    23  15  71 W5        29.93F WCI  17
BROOMFIELD     CLOUDY    27  14  59 NE5       29.93F WCI  21
FORT COLLINS   CLOUDY    26  16  65 N17       29.95F WCI  13
LONGMONT       MOCLDY    24  18  78 CALM      29.97S
$$

COZ041-046-047-076>085-087-088-220800-
...PIKES PEAK/PALMER DIVIDE AND SOUTHERN FOOTHILLS...

CITY           SKY/WX    TMP DP  RH WIND       PRES   REMARKS
COLO. SPRINGS  FAIR      21  13  71 NW16G24   29.92R WCI   7
A. F. ACADEMY  FLURRIES  19  13  76 NW17      29.88S WCI   4
SCHRIEVER AFB  FAIR      19  12  74 N9        29.91S WCI   8
CHEYENNE MTN   FAIR      19  10  68 NW7       29.83S WCI   9
ELLICOTT         N/A    N/A N/A N/A NW12        N/A
FALCON         FLURRIES  18  12  79 NW14      29.88S WCI   4
FORT CARSON    FAIR      22  10  60 N6        29.92R WCI  14
LIMON          LGT SNOW  21  20  96 NW33G45   29.86S VSB 3/4 WCI   2
MONUMENT HILL  FLURRIES  16  14  93 NW17      29.89S WCI   0
CANON CITY     MOCLDY    27  14  59 NW9       29.94S WCI  17
WALSENBURG     FAIR      10   9  92 W8        29.94S WCI  -1
TRINIDAD       CLOUDY    19  16  88 SW8       29.94S WCI   9
$$

COZ042>045-048>051-090-091-220800-
...NORTHEAST COLORADO...

CITY           SKY/WX    TMP DP  RH WIND       PRES   REMARKS
GREELEY ARPT   FAIR      25  16  68 N15       29.96F WCI  13
AKRON          CLOUDY    23  21  92 NW28      29.87S FOG     WCI   6
BURLINGTON     FOG       26  24  92 NW33G49   29.78S VSB 1/2 WCI   9
WRAY           CLOUDY    28  28 100 NW29G36   29.83S WCI  13
YUMA           LGT SNOW  25  23  93 NW25G32   29.85S WCI   9
STERLING       FAIR      27  23  86 NW29G36   29.88S FOG     WCI  11
HOLYOKE        CLOUDY    30  28  93 N31G38    29.84R WCI  15
FORT MORGAN    CLOUDY    26  18  73 NW28G35   29.93F WCI   9
$$

COZ086-089-092>099-220800-
...SOUTHEAST COLORADO...

CITY           SKY/WX    TMP DP  RH WIND       PRES   REMARKS
PUEBLO         MOCLDY    28  15  58 N17       29.95R WCI  16
LA JUNTA       MOCLDY    28  18  66 NW18      29.93F WCI  15
LAMAR          CLOUDY    29  21  72 NW24G31   29.86S WCI  15
SPRINGFIELD      N/A     24  21  88 NW35G46   29.83F WCI   6
$$




USA.gov is the U.S. government's official web portal to all federal, state and local government web resources and services.